This is the latest recevied weather packets stored in our database for station/object dl1wer-13. If no packets are shown the sender has not sent any weather packets the latest 10 day(s).
| Time | Temp. | Humidity | Pressure | Rain* | Wind** | Luminosity | Snow |
|---|---|---|---|---|---|---|---|
| 1778072423 | 18.33° C | 52% | 1031.8 hPa | 0 mm | - | - | - |
| 1778071823 | 18.33° C | 51% | 1031.7 hPa | 0 mm | - | - | - |
| 1778071222 | 18.33° C | 51% | 1031.7 hPa | 0 mm | - | - | - |
| 1778070624 | 17.78° C | 51% | 1031.5 hPa | 0 mm | - | - | - |
| 1778070023 | 17.78° C | 51% | 1031.6 hPa | 0 mm | - | - | - |
| 1778069423 | 17.78° C | 50% | 1031.4 hPa | 0 mm | - | - | - |
| 1778068824 | 17.78° C | 50% | 1031.9 hPa | 0 mm | - | - | - |
| 1778068223 | 18.33° C | 47% | 1031.8 hPa | 0 mm | - | - | - |
| 1778067623 | 17.78° C | 47% | 1031.8 hPa | 0 mm | - | - | - |
| 1778067023 | 18.33° C | 51% | 1031.9 hPa | 0 mm | - | - | - |
| 1778066423 | 18.33° C | 52% | 1032 hPa | 0 mm | - | - | - |
| 1778065823 | 17.78° C | 51% | 1032.1 hPa | 0 mm | - | - | - |
| 1778065223 | 17.78° C | 54% | 1032.2 hPa | 0 mm | - | - | - |
| 1778064622 | 17.78° C | 55% | 1032 hPa | 0 mm | - | - | - |
| 1778064023 | 17.22° C | 61% | 1031.9 hPa | 0 mm | - | - | - |
| 1778063423 | 16.67° C | 61% | 1032.5 hPa | 0 mm | - | - | - |
| 1778062823 | 16.67° C | 60% | 1032.7 hPa | 0 mm | - | - | - |
| 1778062223 | 16.67° C | 59% | 1032.7 hPa | 0 mm | - | - | - |
| 1778061624 | 16.67° C | 60% | 1033.1 hPa | 0 mm | - | - | - |
| 1778061022 | 16.67° C | 59% | 1032.9 hPa | 0 mm | - | - | - |
| 1778060422 | 16.67° C | 60% | 1032.9 hPa | 0 mm | - | - | - |
| 1778059823 | 17.22° C | 60% | 1032.8 hPa | 0 mm | - | - | - |
| 1778059222 | 17.22° C | 61% | 1033 hPa | 0 mm | - | - | - |
| 1778058623 | 16.67° C | 63% | 1032.9 hPa | 0 mm | - | - | - |
| 1778058023 | 16.67° C | 66% | 1032.9 hPa | 0 mm | - | - | - |
* Rain latest hour (hover to see other rain measurements)
** Current wind speed in m/s (hover to see current wind gust speed)